[[{"header":{"parameterUnit":"m.s-1","parameterCategory":1,"la1":30.2991,"la2":30.254,"lo1":-89.0895,"lo2":-89.0444,"dy":0.0017,"dx":0.0017,"nx":28,"ny":28,"refTime":"2025-03-31T03:00:00:Z","depth":0,"parameterNumber":2,"parameterNumberName":"U-component_of_WINDS"},"data":[0,0,0,0,0,0,0,0,0,0,0,0,0,0,0,0,0,0,0,0,0,0,0,0,0,0,0,0,0,0,0,0,0,0,0,0,0,0,0,0,0,0,0,0,0,0,0,0,0,0,0,0,0,0,0,0,0,0,-3.0732,-3.0732,0,-3.0767,-3.0767,-3.0767,-3.0737,-3.0736,-3.0735,-3.0734,-3.0772,-3.0774,-3.0776,0,0,0,0,0,0,0,0,0,0,0,0,0,-3.0642,-3.0644,-3.0732,-3.0732,-3.0732,-3.0767,-3.0767,-3.0768,-3.0738,-3.0736,-3.0734,-3.0733,-3.0771,-3.0773,-3.0776,0,0,0,0,0,0,0,0,0,0,0,0,0,-3.068,-3.0645,-3.0732,-3.0722,-3.0721,-3.0766,-3.0767,-3.0768,-3.0738,-3.0736,-3.0734,-3.0732,-3.077,-3.0773,-3.0776,-3.0834,0,0,-3.0786,-3.0788,0,0,0,0,0,0,0,0,-3.0677,-3.0683,-3.0723,-3.0722,-3.0722,-3.0746,-3.0749,-3.079,-3.0738,-3.0732,-3.0734,-3.0731,-3.0765,-3.0768,-3.0779,-3.0836,-3.0837,-3.0787,-3.0789,-3.079,-3.0791,0,0,0,0,0,0,0,-3.0675,-3.0681,-3.0745,-3.0723,-3.0723,-3.0716,-3.072,-3.0757,-3.0758,-3.0732,-3.073,-3.0734,-3.0764,-3.0776,-3.078,-3.0838,-3.0787,-3.0789,-3.0791,-3.0793,-3.0947,-3.0949,0,0,0,0,0,0,-3.0673,-3.0679,-3.0744,-3.0747,-3.0694,-3.072,-3.0723,-3.074,-3.0758,-3.0759,-3.0736,-3.0733,-3.0771,-3.0776,-3.0781,-3.0851,-3.079,-3.0793,-3.0795,-3.0945,-3.0947,-3.0949,0,0,0,0,0,0,-3.0671,-3.0679,-3.0743,-3.0712,-3.072,-3.0723,-3.0742,-3.0742,-3.0753,-3.0761,-3.0761,-3.0747,-3.077,-3.0776,-3.0821,-3.0852,-3.0795,-3.0797,-3.0942,-3.0945,-3.0948,-3.0991,0,0,0,0,0,0,-3.0669,-3.0679,-3.0699,-3.0713,-3.0722,-3.0782,-3.0744,-3.0744,-3.0759,-3.0755,-3.0772,-3.0773,-3.0769,-3.0817,-3.0825,-3.0855,-3.08,-3.0939,-3.0944,-3.0947,-3.0986,-3.0995,-3.1002,0,0,0,0,0,-3.0666,-3.071,-3.0701,-3.0709,-3.0748,-3.0784,-3.0789,-3.0783,-3.0761,-3.0783,-3.0788,-3.0772,-3.0847,-3.0822,-3.083,-3.0862,-3.0937,-3.0942,-3.0947,-3.0983,-3.0993,-3.1002,0,0,0,0,0,0,-3.07,-3.0711,-3.0701,-3.0751,-3.0767,-3.0778,-3.0805,-3.0794,-3.0816,-3.0812,-3.0804,-3.0809,-3.0857,-3.0864,-3.0835,-3.092,-3.0889,-3.0896,-3.0913,-3.0923,-3.0931,-3.0928,-3.0803,0,0,0,0,0,-3.0713,-3.074,-3.0749,-3.0793,-3.0801,-3.0802,-3.0818,-3.0812,-3.0828,-3.0835,-3.0843,-3.086,-3.0888,-3.0906,-3.0931,-3.0988,-3.0992,-3.1014,-3.1022,-3.1028,-3.1034,-3.1067,-3.1077,-3.0965,-3.0965,-3.0965,0,0,-3.0741,-3.0751,-3.0768,-3.08,-3.0811,-3.0841,-3.0808,-3.084,-3.0862,-3.084,-3.0883,-3.089,-3.0909,-3.096,-3.0983,-3.0968,-3.1066,-3.1034,-3.1039,-3.1042,-3.1073,-3.1083,-3.1093,-3.0968,-3.0968,-3.0967,0,0,-3.0807,-3.0816,-3.0854,-3.0867,-3.0884,-3.0885,-3.0895,-3.0909,-3.0913,-3.0956,-3.094,-3.0967,-3.1015,-3.1029,-3.1043,-3.1117,-3.1104,-3.1126,-3.1166,-3.1198,-3.1206,-3.1214,-3.1242,-3.1252,-3.1132,-3.1132,-3.1132,0,-3.0839,-3.0882,-3.0875,-3.0909,-3.0924,-3.0905,-3.0945,-3.0957,-3.0983,-3.0995,-3.0977,-3.1037,-3.1048,-3.1104,-3.1122,-3.1133,-3.1145,-3.1123,-3.1206,-3.1213,-3.1221,-3.1247,-3.1257,-3.1134,-3.1134,-3.1134,-3.1134,0,-3.0922,-3.0952,-3.0981,-3.1006,-3.1025,-3.1061,-3.1061,-3.1081,-3.1075,-3.1078,-3.1124,-3.1137,-3.1166,-3.1179,-3.1172,-3.1234,-3.1224,-3.1206,-3.1175,-3.1234,-3.1259,-3.1269,-3.1138,-3.1137,-3.1137,-3.1136,0,0,-3.1008,-3.1031,-3.1042,-3.1054,-3.1073,-3.1097,-3.1134,-3.1162,-3.118,-3.1199,-3.123,-3.1272,-3.1256,-3.1272,-3.1268,-3.1295,-3.1355,-3.1274,-3.1275,-3.129,-3.1426,-3.1439,-3.1451,-3.1347,-3.1349,-3.135,-3.1425,0,-3.1076,-3.1138,-3.1134,-3.1194,-3.1223,-3.1207,-3.1239,-3.1256,-3.1261,-3.1287,-3.1293,-3.1323,-3.1299,-3.1308,-3.1335,-3.1342,-3.1383,-3.1337,-3.1377,-3.1379,-3.1373,-3.1464,-3.1477,-3.1547,-3.1434,-3.1436,-3.1437,0,-3.1162,-3.1184,-3.1247,-3.1264,-3.1276,-3.1305,-3.1331,-3.1356,-3.1376,-3.1377,-3.1396,-3.1388,-3.1427,-3.1395,-3.1449,-3.1418,-3.1435,-3.1441,-3.1444,-3.1448,-3.1411,-3.147,-3.1569,-3.1579,-3.1452,-3.1451,-3.145,0,-3.122,-3.1266,-3.1309,-3.132,-3.1341,-3.1362,-3.1372,-3.1389,-3.1407,-3.1431,-3.1443,-3.1471,-3.1487,-3.1509,-3.151,-3.1486,-3.1566,-3.1533,-3.1569,-3.1569,-3.1586,-3.1585,-3.1689,-3.1597,-3.1597,-3.1596,-3.1596,0,-3.1295,-3.1334,-3.1336,-3.1363,-3.1407,-3.1403,-3.1448,-3.1456,-3.1472,-3.1501,-3.1489,-3.1517,-3.1516,-3.1545,-3.1546,-3.1592,-3.1599,-3.1602,-3.1602,-3.1603,-3.1603,-3.1614,-3.1609,-3.1599,-3.1599,-3.1598,-3.1598,0,-3.1367,-3.1369,-3.1416,-3.1433,-3.1438,-3.147,-3.1485,-3.1511,-3.1516,-3.1553,-3.1562,-3.157,-3.1603,-3.1606,-3.1645,-3.1646,-3.1702,-3.1697,-3.1695,-3.1695,-3.1731,-3.1728,-3.1846,-3.1862,-3.1758,-3.1759,-3.176,0,-3.1415,-3.1445,-3.1465,-3.1484,-3.1495,-3.1525,-3.1543,-3.1542,-3.1562,-3.1587,-3.1611,-3.1644,-3.167,-3.1725,-3.1735,-3.1765,-3.1761,-3.18,-3.1765,-3.1766,-3.1762,-3.1761,-3.1764,-3.1807,-3.1808,-3.1809,-3.181,0,-3.15,-3.1501,-3.1527,-3.1555,-3.1578,-3.16,-3.162,-3.1637,-3.1638,-3.1661,-3.1695,-3.1716,-3.1756,-3.179,-3.182,-3.1832,-3.1822,-3.1821,-3.1831,-3.1832,-3.1831,-3.1833,-3.1714,-3.1818,-3.1817,-3.1816,-3.1816,-3.1816,-3.1562,-3.1588,-3.1607,-3.1638,-3.1654,-3.1674,-3.17,-3.1708,-3.1737,-3.1769,-3.1767,-3.1806,-3.1826,-3.1866,-3.188,-3.1912,-3.1898,-3.1913,-3.1916,-3.192,-3.1924,-3.1826,-3.1917,-3.1917,-3.1917,-3.1916,-3.1916,0,-3.1647,-3.1659,-3.1687,-3.1717,-3.1742,-3.173,-3.1753,-3.1775,-3.1809,-3.1829,-3.1855,-3.1896,-3.1928,-3.1941,-3.1974,-3.1997,-3.1993,-3.2005,-3.2004,-3.2007,-3.1934,-3.1922,-3.2008,-3.2008,-3.2008,-3.2008,-3.2008,-3.2008,-3.1694,-3.1739,-3.1742,-3.1795,-3.1807,-3.1844,-3.1859,-3.1878,-3.1894,-3.194,-3.1967,-3.1975,-3.1993,-3.2027,-3.2058,-3.2061,-3.2074,-3.2088,-3.2089,-3.2021,-3.2012,-3.2003,-3.1992,-3.2091,-3.2091,-3.216,-3.2161,-3.2161]},{"header":{"parameterUnit":"m.s-1","parameterCategory":1,"la1":30.2991,"la2":30.254,"lo1":-89.0895,"lo2":-89.0444,"dy":0.0017,"dx":0.0017,"nx":28,"ny":28,"refTime":"2025-03-31T03:00:00:Z","depth":0,"parameterNumber":3,"parameterNumberName":"V-component_of_WINDS"},"data":[0,0,0,0,0,0,0,0,0,0,0,0,0,0,0,0,0,0,0,0,0,0,0,0,0,0,0,0,0,0,0,0,0,0,0,0,0,0,0,0,0,0,0,0,0,0,0,0,0,0,0,0,0,0,0,0,0,0,0.0448,0.0448,0,0.0395,0.0394,0.0394,0.0363,0.0363,0.0363,0.0363,0.031,0.0308,0.0307,0,0,0,0,0,0,0,0,0,0,0,0,0,0.0527,0.0526,0.0449,0.0448,0.0447,0.0395,0.0394,0.0393,0.0363,0.0363,0.0363,0.0363,0.031,0.0308,0.0307,0,0,0,0,0,0,0,0,0,0,0,0,0,0.0485,0.0525,0.0449,0.0426,0.0423,0.0395,0.0394,0.0393,0.0363,0.0363,0.0363,0.0363,0.0311,0.0309,0.0307,0.0297,0,0,0.0301,0.03,0,0,0,0,0,0,0,0,0.0487,0.0482,0.043,0.0427,0.0424,0.0386,0.0402,0.0361,0.0363,0.0386,0.0363,0.0363,0.0335,0.0331,0.0321,0.0295,0.0293,0.03,0.0299,0.0298,0.0298,0,0,0,0,0,0,0,0.049,0.0484,0.0427,0.0429,0.0426,0.0419,0.0413,0.0394,0.0362,0.0384,0.0382,0.0376,0.0334,0.0323,0.032,0.0292,0.03,0.0299,0.0297,0.0297,0.0255,0.0256,0,0,0,0,0,0,0.0497,0.0487,0.0429,0.0426,0.0456,0.0418,0.0411,0.0398,0.0362,0.0357,0.0376,0.0375,0.0327,0.0322,0.0318,0.0305,0.0298,0.0296,0.0295,0.0255,0.0255,0.0256,0,0,0,0,0,0,0.0498,0.0492,0.0431,0.0456,0.0447,0.0416,0.0403,0.0397,0.0387,0.0356,0.035,0.0371,0.0327,0.0321,0.0303,0.0302,0.0296,0.0294,0.0255,0.0255,0.0256,0.0278,0,0,0,0,0,0,0.0501,0.0493,0.0488,0.0456,0.0446,0.0416,0.0403,0.0396,0.0383,0.0381,0.035,0.0345,0.0326,0.0306,0.0301,0.0299,0.0292,0.0255,0.0255,0.0255,0.0277,0.0279,0.028,0,0,0,0,0,0.0504,0.0497,0.0488,0.0481,0.044,0.0416,0.0411,0.0389,0.0384,0.0379,0.036,0.0346,0.0303,0.0304,0.0298,0.0296,0.0255,0.0255,0.0255,0.0276,0.0279,0.028,0,0,0,0,0,0,0.0531,0.0492,0.0482,0.0465,0.0444,0.0411,0.0405,0.0392,0.0372,0.0371,0.0345,0.0338,0.0323,0.0308,0.031,0.0286,0.0278,0.0277,0.0296,0.0298,0.0299,0.0303,0.0291,0,0,0,0,0,0.0535,0.0518,0.0486,0.0473,0.0463,0.0436,0.0425,0.041,0.0388,0.0379,0.0358,0.0337,0.0319,0.0308,0.0289,0.0275,0.0268,0.0271,0.0273,0.0274,0.0273,0.0265,0.0266,0.0256,0.0256,0.0256,0,0,0.0542,0.0519,0.0511,0.0478,0.046,0.0444,0.0429,0.0413,0.04,0.0376,0.0358,0.0342,0.0317,0.0301,0.0293,0.0288,0.0275,0.0274,0.0276,0.0274,0.0265,0.0266,0.0267,0.0256,0.0256,0.0256,0,0,0.0548,0.0529,0.0517,0.0499,0.0472,0.0454,0.0452,0.0421,0.0409,0.039,0.0372,0.0358,0.0327,0.031,0.0298,0.0298,0.0285,0.0293,0.0301,0.0293,0.0294,0.0294,0.0294,0.0294,0.0292,0.0292,0.0292,0,0.0561,0.0535,0.0512,0.0496,0.0483,0.046,0.0448,0.0432,0.0401,0.0393,0.0388,0.0349,0.0331,0.031,0.0311,0.0301,0.0297,0.0296,0.0295,0.0296,0.0296,0.0295,0.0295,0.0294,0.0293,0.0293,0.0293,0,0.0553,0.0536,0.0529,0.0499,0.0485,0.0471,0.0446,0.0435,0.0421,0.0404,0.0385,0.0362,0.0339,0.0333,0.032,0.0311,0.0309,0.03,0.0292,0.0298,0.0297,0.0297,0.0295,0.0295,0.0294,0.0294,0,0,0.0573,0.0531,0.0529,0.0515,0.0484,0.047,0.0456,0.0433,0.0423,0.0403,0.039,0.0365,0.0357,0.0343,0.0328,0.0321,0.0322,0.0313,0.0312,0.0315,0.0311,0.0317,0.0317,0.0314,0.0313,0.0313,0.0313,0,0.0574,0.0546,0.0525,0.0505,0.0489,0.0468,0.0455,0.0435,0.0419,0.0404,0.0386,0.0368,0.0359,0.035,0.0343,0.0324,0.0321,0.0323,0.0301,0.0301,0.0307,0.0317,0.0323,0.0323,0.0312,0.0312,0.0312,0,0.0571,0.0551,0.0529,0.05,0.0493,0.0482,0.0459,0.0444,0.0421,0.041,0.0395,0.0379,0.0363,0.0357,0.0335,0.0338,0.0328,0.0317,0.0317,0.0313,0.0306,0.0313,0.0323,0.0323,0.0311,0.0311,0.0311,0,0.0587,0.0555,0.0538,0.0527,0.0493,0.0485,0.0471,0.0448,0.0436,0.0416,0.0408,0.0387,0.0376,0.036,0.034,0.0337,0.032,0.0312,0.031,0.0311,0.0307,0.0307,0.0315,0.0302,0.0302,0.0302,0.0302,0,0.059,0.0577,0.0545,0.0534,0.052,0.0496,0.0483,0.0467,0.0447,0.0433,0.0414,0.0402,0.0376,0.036,0.0344,0.0329,0.0324,0.0314,0.031,0.0316,0.0317,0.0308,0.0307,0.0302,0.0302,0.0302,0.0302,0,0.0605,0.0583,0.0562,0.0532,0.0524,0.0515,0.0489,0.0478,0.0461,0.0444,0.0439,0.0413,0.0394,0.0372,0.0346,0.0335,0.0321,0.0315,0.0328,0.0325,0.0325,0.0325,0.0326,0.0325,0.0314,0.0314,0.0314,0,0.0608,0.0598,0.0566,0.0555,0.0541,0.0524,0.0511,0.0488,0.0476,0.045,0.0442,0.0422,0.0404,0.0375,0.0354,0.0334,0.0327,0.0329,0.0324,0.033,0.0326,0.0327,0.0326,0.033,0.033,0.0331,0.0331,0,0.0615,0.0604,0.0586,0.0564,0.0549,0.0531,0.0512,0.0505,0.0478,0.0465,0.0445,0.0432,0.0405,0.0385,0.0363,0.0349,0.0335,0.0333,0.0331,0.0336,0.0344,0.0339,0.0331,0.0333,0.0332,0.0332,0.0332,0.0332,0.0623,0.0613,0.059,0.057,0.0554,0.0536,0.0525,0.0507,0.0489,0.0466,0.0453,0.0434,0.0412,0.038,0.0367,0.0351,0.0347,0.0345,0.0344,0.0344,0.0345,0.0347,0.0347,0.0347,0.0347,0.0347,0.0347,0,0.0629,0.0613,0.0595,0.0569,0.0554,0.0543,0.0522,0.051,0.0493,0.0473,0.0456,0.0434,0.0414,0.0392,0.0371,0.0363,0.0357,0.0359,0.0359,0.0356,0.0351,0.0354,0.0364,0.0364,0.0364,0.0364,0.0364,0.0364,0.063,0.0613,0.0599,0.0574,0.0558,0.0538,0.0527,0.0511,0.0495,0.0471,0.0455,0.044,0.0419,0.0397,0.0379,0.0373,0.0366,0.037,0.0362,0.0358,0.0356,0.0355,0.0357,0.0369,0.0369,0.0368,0.0368,0.0368]}]]